Location: La Fredeussais
(48.1780°N, 1.3980°W)
Time: 04:05:57
(UTC+00:00)

Cosmos 1602 - Pass Details

Date: 09 May 2021
Orbit: 514 x 532 km, 82.5° (Epoch: 13 June)

Event Time Altitude Azimuth Distance (km) Brightness Sun altitude
Rises 20:45:00 0° 352° (N) 2,654 8.2 -10.9°
Reaches altitude 10° 20:47:09 10° 354° (N) 1,763 7.2 -11.2°
Maximum altitude 20:51:01 75° 80° (E) 546 3.7 -11.7°
Enters shadow 20:54:11 15° 165° (SSE) 1,480 5.5 -12.0°
